Location: Bowen Observatory
(35.3292°N, 120.7429°W)
Time: 06:40:13
(UTC-08:00)

Envisat - Visible Passes

Search period start: 29 February 2020 00:00
Search period end: 10 March 2020 01:00
Orbit: 764 x 766 km, 98.1° (Epoch: 28 February)

Date Brightness Start Highest point End Pass type
(mag) Time Alt. Az. Time Alt. Az. Time Alt. Az.
01 Mar 4.9 06:00:43 10° NNE 06:05:23 36° E 06:10:01 10° SSE visible
01 Mar 5.7 18:51:53 10° SSW 18:55:50 23° W 18:59:48 10° NW visible
02 Mar 6.3 05:25:27 10° ENE 05:28:22 15° E 05:31:16 10° SE visible
03 Mar 6.4 19:19:35 10° WSW 19:21:32 12° W 19:23:29 10° WNW visible
04 Mar 5.4 05:49:41 10° NE 05:54:02 28° E 05:58:20 10° SSE visible
04 Mar 5.3 18:40:04 10° SSW 18:44:28 29° W 18:48:52 10° NW visible
05 Mar 6.6 05:15:19 10° ENE 05:16:56 11° E 05:18:34 10° ESE visible
06 Mar 6.2 19:07:03 10° SW 19:10:08 16° W 19:13:12 10° NW visible
07 Mar 5.9 05:38:46 10° NE 05:42:40 22° E 05:46:31 10° SE visible
07 Mar 4.8 18:28:25 10° SSW 18:33:07 38° W 18:37:49 10° NNW visible
09 Mar 5.9 19:54:59 10° SW 19:58:44 21° W 20:02:30 10° NW visible
